RH
12 15 14 14 16 19 22 21 20 22 25 26 27 28 29 28 29 33 33 31 33 36 38 40 43 44 47 50 49 49 50 50 50 51 51 45 40 42 46 48 41 33 31 29 28 30 31 32 32 31 32 32 33 33 33 32 32 31 29 27 25 23 23 23 23 23 22 22 22 23 23 23 23 24 25 26 27 31 33 34 37 39 39 42 44 45
12 13 13 13 16 19 20 20 19 20 23 25 25 25 27 27 29 32 33 32 33 35 38 41 44 45 47 48 48 50 50 49 49 50 51 47 41 42 46 47 41 33 32 30 28 28 29 30 30 30 31 30 31 31 31 30 29 29 28 25 22 21 20 20 21 21 21 20 21 22 22 23 23 24 24 24 26 29 32 32 35 37 39 42 44 45
14 13 11 11 14 17 18 18 18 18 21 23 24 24 24 26 31 33 33 33 33 33 37 42 45 46 48 49 49 49 49 48 48 49 50 47 41 42 46 47 41 35 33 30 27 26 26 28 29 29 29 28 28 29 29 29 29 28 27 24 23 21 19 20 21 21 21 20 21 22 23 23 24 24 24 25 27 30 31 31 33 35 38 40 42 43
16 13 10 10 12 15 16 17 17 17 19 20 22 22 22 27 32 33 33 34 33 32 34 38 41 46 50 52 50 48 49 49 49 49 50 47 42 41 44 46 42 37 33 30 26 25 24 26 27 27 27 26 26 28 28 29 29 27 25 24 23 21 21 20 20 20 21 22 23 24 25 24 24 24 25 26 28 29 30 31 32 34 36 38 40 42
14 12 9 9 11 13 14 15 16 16 17 17 20 20 20 27 32 32 33 34 33 31 33 35 39 44 47 51 51 48 49 50 49 50 49 46 44 45 46 46 43 40 35 29 26 24 23 23 24 24 24 24 25 25 26 26 26 25 23 22 22 22 22 22 21 20 21 22 23 24 26 26 25 25 25 25 25 27 29 32 32 32 33 36 39 40
12 11 10 9 10 11 12 13 14 15 16 15 17 17 20 28 31 31 33 34 34 33 33 36 43 46 45 46 49 49 49 48 47 49 48 46 46 48 49 48 46 43 39 33 27 24 22 21 20 21 22 23 23 23 22 23 23 23 22 22 22 23 23 23 22 22 22 22 23 24 24 24 25 25 24 23 24 25 28 32 33 31 32 35 37 38
11 10 11 10 10 11 13 13 12 14 16 15 14 16 23 30 30 31 33 34 35 35 34 36 42 48 46 42 45 49 47 45 46 47 46 45 46 47 49 51 49 46 43 39 32 28 26 23 20 20 20 21 21 21 21 21 22 22 22 22 23 24 24 24 24 23 22 22 23 23 21 21 22 22 22 22 24 25 27 30 32 32 33 35 36 36
11 10 11 10 10 11 13 13 11 13 15 13 11 15 24 30 30 30 32 33 34 34 35 36 38 41 42 38 39 44 47 46 44 44 44 45 46 47 48 49 50 47 44 41 37 33 30 28 25 22 21 19 18 19 20 21 21 22 22 22 23 24 25 25 25 24 23 22 23 23 23 22 21 20 20 21 23 26 29 31 32 32 33 35 36 37
11 11 11 10 11 11 11 12 11 12 13 10 10 14 21 29 31 31 33 33 33 34 34 35 36 37 38 36 34 39 45 45 42 41 44 44 44 45 47 48 49 49 47 43 39 36 32 31 29 26 24 21 19 19 19 20 20 20 21 22 23 23 24 25 25 25 24 23 23 24 25 24 22 21 21 22 24 25 27 29 31 33 35 37 37 37
12 12 11 11 12 10 9 10 10 12 11 9 10 13 19 27 31 32 34 33 34 36 31 30 34 35 33 33 33 37 40 40 39 40 41 41 42 43 45 46 47 49 50 45 41 38 34 31 30 28 27 25 24 22 20 19 19 20 20 21 22 23 23 23 24 24 24 23 23 24 25 24 24 24 24 25 25 25 25 25 28 31 34 36 37 38
12 12 12 12 12 10 9 9 9 10 9 9 11 12 16 23 28 32 34 34 37 34 25 25 33 34 30 28 29 32 34 36 37 39 39 39 40 41 43 44 44 46 49 47 43 40 37 34 32 30 30 29 29 27 23 20 19 20 21 21 22 22 23 23 24 24 25 24 24 25 25 24 24 25 26 27 26 25 24 24 26 28 31 35 36 37
13 12 12 12 11 10 10 10 10 9 8 8 9 10 13 17 22 28 31 34 34 27 21 24 32 34 28 23 24 26 28 33 35 36 37 38 38 38 40 42 42 42 45 47 45 42 39 38 36 34 34 34 33 32 29 26 23 22 22 22 23 23 24 25 26 27 27 28 28 27 27 25 25 25 26 26 26 25 24 23 25 28 31 34 34 35
13 12 12 11 11 11 12 11 11 10 9 9 9 11 13 14 17 21 25 28 27 22 22 25 31 32 25 19 22 23 23 28 32 34 35 36 35 36 37 38 39 41 43 45 45 44 41 39 39 38 37 36 35 35 35 32 29 26 25 24 25 25 25 26 26 27 28 30 30 30 29 28 27 26 26 26 26 25 25 25 25 27 31 33 33 34
14 13 11 11 11 11 12 12 11 11 10 11 10 11 13 13 16 19 21 22 22 20 22 25 30 31 22 18 20 21 21 22 25 29 32 33 32 33 34 34 36 39 40 41 43 45 43 40 39 38 37 35 34 34 36 36 35 32 30 29 28 27 27 28 28 28 28 29 30 30 30 30 29 28 27 26 26 25 25 25 25 27 30 31 32 32
16 16 13 11 11 11 12 11 10 10 10 10 10 11 11 13 16 18 18 20 20 20 20 25 30 27 20 18 19 20 21 20 20 23 26 27 28 30 32 32 34 37 39 40 41 42 43 42 40 39 37 34 32 33 34 36 38 38 35 33 32 31 31 32 32 31 29 28 28 30 31 31 30 29 28 27 26 24 24 24 26 27 29 30 31 31
17 16 13 11 10 10 11 11 10 11 11 10 10 12 11 11 14 15 17 19 19 19 19 22 27 25 19 19 19 19 21 21 19 19 20 22 25 28 30 30 32 34 37 39 40 41 43 44 43 41 38 34 33 34 35 36 38 39 39 38 36 34 34 34 34 33 32 29 28 29 31 32 32 31 30 29 27 25 23 23 26 28 30 32 33 31
17 16 13 12 12 10 10 11 11 11 12 12 12 12 10 10 11 13 15 16 16 18 19 19 20 21 19 18 18 18 20 21 20 19 18 19 23 26 28 27 28 31 35 37 39 40 42 44 44 42 40 37 36 36 37 36 36 38 41 41 39 37 36 37 36 34 32 31 30 30 31 32 33 32 31 30 28 26 24 23 25 29 32 35 33 31
17 16 15 13 12 10 10 11 12 11 12 12 12 10 10 11 11 13 13 13 14 17 18 17 17 16 18 19 19 18 20 21 21 20 19 18 21 24 24 26 28 30 32 34 36 39 41 44 45 43 42 40 37 36 35 35 36 39 41 42 42 40 38 37 36 35 33 31 31 32 32 32 33 33 32 32 31 30 28 25 25 30 34 36 34 31
18 17 16 14 13 11 11 12 13 13 12 11 11 10 12 13 12 13 14 13 14 15 15 17 17 16 17 19 19 17 18 21 22 22 21 18 20 22 22 26 29 30 31 32 33 37 40 43 44 43 43 40 38 36 35 36 39 41 42 42 42 41 39 38 37 35 34 32 32 33 34 33 33 32 32 32 32 31 29 26 26 30 34 36 35 32
20 19 17 16 14 13 12 13 14 14 12 12 12 12 13 13 12 12 14 14 14 15 15 16 16 14 14 16 17 15 16 19 20 22 21 19 19 20 22 25 26 27 29 31 33 35 38 41 42 42 41 40 38 37 37 39 42 44 44 43 42 43 43 43 41 38 35 34 33 34 35 34 32 31 31 32 32 31 28 26 27 31 33 35 36 34
20 20 18 18 17 15 15 15 14 13 13 12 13 12 12 12 12 12 13 13 13 16 18 16 13 12 13 14 13 13 14 16 18 19 19 19 20 21 23 24 22 24 28 30 32 35 38 40 41 41 41 41 40 40 41 43 43 43 45 45 44 44 45 45 43 40 36 33 33 33 34 34 32 30 30 31 32 30 27 26 27 30 31 33 35 35
22 20 18 17 17 17 17 15 13 12 12 12 12 11 11 12 13 13 13 13 12 14 18 16 11 10 12 12 10 10 12 13 16 18 18 18 19 21 23 23 21 23 28 30 32 35 38 40 41 41 41 42 43 43 43 44 44 43 44 45 45 45 45 44 42 39 36 35 35 34 34 33 32 30 29 30 31 29 25 24 27 29 30 31 33 37
26 22 19 18 17 18 18 16 15 13 12 13 13 11 11 12 13 13 13 13 12 13 15 16 13 10 11 11 9 10 11 11 13 16 16 16 18 21 24 25 25 26 29 31 32 34 36 38 40 41 42 43 42 42 42 43 43 44 44 45 46 45 44 43 41 39 38 38 37 36 35 34 32 31 29 28 28 25 23 23 26 30 30 30 32 37
28 25 23 21 19 18 19 19 17 16 15 15 15 13 12 12 12 12 13 14 14 13 14 15 14 12 12 13 11 10 10 10 10 12 14 15 16 21 25 27 29 30 31 31 32 34 35 37 39 41 41 41 40 40 41 41 42 43 44 45 46 44 43 43 41 40 40 39 39 38 37 35 32 31 29 27 26 23 22 24 27 29 30 29 32 37
32 31 29 25 22 21 21 22 21 19 17 17 16 15 13 13 12 12 14 16 14 13 14 15 13 13 15 16 13 10 10 10 10 11 12 13 15 19 24 28 30 31 31 32 33 34 35 36 37 39 39 40 39 40 40 40 40 42 42 43 43 43 44 43 42 42 41 40 41 40 39 36 34 31 28 27 27 27 26 27 29 28 28 30 34 38
36 36 32 29 27 25 24 25 25 23 20 17 17 17 15 14 13 12 13 15 16 16 14 13 14 15 16 14 12 11 10 10 10 11 12 12 13 16 21 26 29 29 30 31 32 33 34 34 34 35 37 38 39 40 41 41 41 42 42 41 40 41 43 42 42 43 43 42 42 41 40 37 35 33 30 28 29 32 31 30 29 28 27 31 35 39
37 38 35 33 34 33 31 31 29 26 22 17 17 18 17 16 14 13 13 14 17 19 15 13 17 16 13 11 11 10 9 8 9 10 13 13 12 14 19 24 25 27 28 29 30 32 33 33 32 32 34 37 38 39 41 42 43 43 43 41 40 40 41 42 42 43 43 43 42 41 40 39 36 35 33 30 31 34 35 32 29 27 28 32 36 39
39 40 37 36 37 36 35 32 30 29 25 19 18 17 17 17 15 14 15 14 17 17 14 16 19 15 12 13 12 10 9 9 8 9 12 13 13 15 20 23 24 25 27 29 30 31 34 35 33 31 32 36 38 40 41 43 43 43 43 43 43 42 42 42 42 42 43 44 43 41 40 40 39 37 36 33 31 33 33 31 29 28 30 33 35 37
42 43 40 38 36 33 31 31 30 31 28 22 20 18 17 17 17 16 16 16 17 15 13 16 18 15 13 14 13 11 10 9 8 9 10 12 13 14 17 20 22 23 25 29 30 31 34 36 35 32 31 33 36 39 42 44 44 43 44 44 45 44 42 42 42 42 42 43 43 42 41 42 41 39 38 36 32 30 30 29 29 31 33 33 33 35
42 46 44 39 37 33 31 31 30 31 29 25 22 19 17 17 17 17 17 16 17 15 14 17 19 16 14 13 12 11 10 9 9 10 10 11 12 13 15 17 19 19 22 26 29 30 32 35 36 33 31 33 34 37 40 43 44 44 43 43 44 44 44 44 43 43 43 42 41 42 43 43 42 40 39 39 34 30 29 28 30 34 36 34 33 33
42 46 44 41 42 38 33 32 31 31 32 29 24 21 19 18 17 16 17 17 17 16 15 18 21 19 17 16 14 12 10 9 9 11 11 11 11 14 16 17 18 19 20 22 26 29 30 33 35 35 34 34 35 37 39 41 43 44 43 43 44 44 44 45 45 44 43 41 40 43 45 45 44 42 41 41 38 34 31 29 31 35 37 36 34 33
44 47 45 45 48 43 36 37 34 31 32 31 26 22 18 17 17 16 16 17 17 17 17 18 19 18 18 17 16 15 14 12 12 12 12 11 11 14 18 19 19 21 22 21 23 27 29 31 33 33 34 35 36 36 38 41 42 44 43 42 42 43 44 45 45 43 42 41 41 44 46 47 47 45 42 42 42 38 34 33 33 35 37 38 37 34
48 50 48 49 52 46 41 41 37 35 37 31 23 20 19 18 17 16 16 17 17 17 17 16 15 15 16 17 17 17 16 14 13 14 13 12 12 14 19 24 24 24 24 23 24 27 29 30 30 31 33 34 34 34 36 39 41 41 41 41 42 43 45 45 44 42 41 41 43 45 45 47 49 47 44 43 44 43 39 36 35 35 36 37 38 37
52 53 52 53 54 48 43 43 43 45 42 28 19 20 21 20 19 17 17 16 16 17 17 15 15 15 16 17 18 17 16 15 16 17 16 15 14 14 18 25 28 27 25 24 25 27 28 28 29 30 31 32 33 33 34 36 38 39 40 41 42 44 44 43 43 42 41 41 42 43 45 47 48 47 46 44 45 46 43 38 35 35 37 39 40 38
53 54 55 56 55 51 46 47 54 56 42 26 22 25 23 21 20 21 23 23 21 21 20 18 17 17 17 19 19 18 20 20 20 20 20 18 17 15 16 22 28 30 27 25 25 26 26 26 27 29 30 31 32 34 34 34 35 37 40 42 43 43 42 40 40 40 39 40 42 43 45 47 47 47 47 47 46 47 45 41 36 35 37 40 41 38
51 54 56 56 56 56 53 54 59 53 37 28 29 31 31 29 26 24 26 28 29 30 27 21 20 22 23 23 23 23 24 23 21 21 21 20 20 19 16 17 23 27 26 25 24 25 26 26 26 27 28 29 31 34 35 34 35 37 39 41 41 40 40 39 39 39 39 40 42 43 44 45 47 47 47 47 47 47 45 43 39 36 37 40 41 40
49 53 56 56 56 57 57 56 56 49 40 38 38 37 40 41 36 31 28 27 30 34 32 25 23 27 26 26 27 27 24 23 22 22 22 21 20 21 20 19 19 20 22 23 24 24 25 26 27 27 28 29 31 33 34 35 36 37 39 39 39 39 40 40 40 39 40 41 41 42 42 44 46 47 47 47 47 46 46 43 40 38 37 40 42 41
46 51 57 57 56 59 62 62 61 56 51 48 47 46 45 43 42 40 34 30 32 36 36 31 28 29 28 27 29 30 26 25 25 24 23 22 20 19 21 22 21 20 20 21 23 23 24 26 28 28 29 29 29 31 34 37 37 38 38 37 38 39 39 39 39 38 40 41 40 40 40 42 44 45 46 47 47 46 46 43 40 39 39 40 41 41
45 49 56 58 58 63 70 71 68 62 56 54 54 52 48 44 42 39 35 32 34 37 38 38 37 37 34 30 30 30 28 27 30 30 27 24 22 19 19 21 21 22 22 24 25 24 23 25 27 28 28 28 28 30 35 38 37 37 37 37 37 38 38 37 36 37 39 40 38 38 39 41 42 42 43 45 46 47 46 44 41 39 40 41 42 41
51 56 62 66 68 71 75 76 71 63 59 60 58 54 52 50 43 37 36 35 36 39 39 41 43 45 41 35 33 34 33 30 31 33 30 25 24 22 19 19 19 20 23 25 27 26 25 25 26 27 28 29 30 33 36 38 37 36 37 38 39 39 37 34 34 36 37 38 38 39 40 42 41 41 40 42 46 46 45 45 44 42 41 41 42 43
63 69 72 76 78 77 78 78 73 64 60 63 63 58 56 52 42 36 37 38 40 43 43 43 46 47 44 40 38 42 44 39 35 35 32 27 26 23 21 20 19 19 22 24 24 25 26 27 27 27 28 29 32 35 37 38 39 38 38 39 39 38 35 32 32 34 35 37 40 41 43 43 43 41 38 39 44 47 46 46 46 45 43 41 42 44
75 75 77 81 82 79 79 80 77 69 64 66 67 63 57 53 47 44 45 46 47 49 48 48 49 48 46 47 46 47 48 44 38 35 32 28 26 24 22 20 18 18 19 20 20 21 22 25 26 26 26 27 30 33 35 36 38 39 39 40 38 35 33 33 34 35 36 38 41 43 45 45 45 45 43 40 42 46 47 47 48 49 48 44 42 44
81 74 74 81 84 80 81 84 82 76 70 69 71 69 65 63 61 57 55 54 54 54 52 51 50 48 47 50 51 49 47 43 39 35 31 28 26 25 22 20 18 18 18 18 19 18 18 20 21 22 22 23 26 29 32 32 33 35 37 38 37 36 37 37 38 40 41 43 43 44 46 46 46 48 48 47 45 45 47 49 51 54 55 52 49 46
82 80 76 77 80 79 79 81 81 78 75 75 79 80 78 75 70 64 62 60 57 57 57 55 52 49 47 48 50 49 46 44 41 37 32 30 28 27 25 22 20 20 19 19 20 20 20 20 20 20 20 20 22 26 30 32 33 34 34 35 36 37 39 39 39 42 45 46 46 46 46 47 47 48 50 50 50 49 49 50 51 52 55 58 57 53
76 82 78 73 75 76 73 74 79 81 79 79 83 85 84 81 74 67 63 62 60 60 60 58 56 53 50 48 49 49 48 47 45 42 38 36 34 31 29 26 24 23 22 21 22 23 23 23 24 23 23 23 22 24 27 30 33 33 33 33 34 35 37 39 40 42 43 45 45 46 47 47 49 51 53 55 56 55 54 53 52 51 53 57 61 61
66 75 75 71 74 76 72 72 81 85 83 80 81 82 83 82 77 68 61 59 62 64 65 63 61 58 55 53 51 52 53 52 49 47 44 42 39 37 34 32 29 27 26 25 25 26 26 26 26 26 27 27 27 27 28 30 31 33 33 34 33 34 35 37 39 40 42 43 44 44 45 46 47 49 51 53 56 57 58 57 56 54 53 55 59 62
68 70 72 72 75 78 75 74 79 85 85 80 78 80 81 82 82 78 72 69 71 72 71 68 65 63 60 57 56 57 56 54 51 50 48 45 44 42 39 37 34 31 30 29 28 28 29 29 29 30 29 29 29 30 31 32 33 34 35 35 35 35 35 36 37 37 40 43 44 44 45 44 45 47 48 50 53 56 57 58 60 58 56 54 54 57
77 72 71 74 76 77 75 73 75 83 84 79 78 83 84 83 83 83 80 78 79 80 78 75 70 66 61 59 58 59 57 55 53 51 50 49 47 45 43 42 40 37 34 32 31 30 30 29 30 30 30 29 29 29 30 32 33 35 36 36 36 36 36 36 35 35 35 38 40 42 44 44 45 47 47 47 50 54 57 59 62 62 58 55 53 53
83 79 77 77 79 80 77 73 75 83 86 82 81 85 87 85 84 83 80 79 80 82 83 79 73 67 63 59 57 57 56 55 54 51 50 49 47 46 45 44 43 41 38 35 34 33 32 31 30 30 30 30 31 31 31 31 32 32 33 35 37 38 38 37 36 36 36 37 39 41 44 48 50 50 48 45 44 47 51 54 56 59 59 56 56 56
88 84 79 78 82 83 79 74 76 83 87 86 83 83 85 84 83 81 80 80 81 84 85 82 75 69 64 58 55 55 55 54 53 52 50 49 48 47 46 44 44 43 41 39 38 36 36 35 34 33 34 33 33 34 34 34 34 33 32 32 34 36 38 39 39 40 40 40 41 41 43 46 50 51 50 47 42 42 46 47 46 50 55 56 56 56
90 86 81 80 83 81 76 73 75 80 84 86 84 84 83 81 80 80 81 82 84 86 87 84 76 70 64 56 53 54 54 53 52 51 50 50 49 48 47 45 44 44 43 42 41 40 40 40 38 37 37 36 36 37 37 37 38 38 37 36 35 37 39 41 42 43 41 40 39 38 39 40 43 43 43 43 42 42 44 45 44 48 53 54 53 55